TimeMDT,TemperatureF,Dew PointF,Humidity,Sea Level PressureIn,VisibilityMPH,Wind Direction,Wind SpeedMPH,Gust SpeedMPH,PrecipitationIn,Events,Conditions,WindDirDegrees,DateUTC
12:53 AM,71.1,32.0,24,30.04,10.0,NE,11.5,-,N/A,,Clear,50,2013-06-28 06:53:00
1:53 AM,68.0,39.0,35,30.05,10.0,ENE,12.7,-,N/A,,Clear,60,2013-06-28 07:53:00
2:53 AM,66.0,39.9,38,30.06,10.0,East,3.5,-,N/A,,Clear,80,2013-06-28 08:53:00
3:53 AM,63.0,42.1,46,30.07,10.0,ENE,10.4,-,N/A,,Clear,60,2013-06-28 09:53:00
4:53 AM,61.0,43.0,52,30.08,10.0,NNE,5.8,-,N/A,,Clear,30,2013-06-28 10:53:00
5:53 AM,60.1,46.0,60,30.09,10.0,NE,10.4,-,N/A,,Clear,50,2013-06-28 11:53:00
6:53 AM,63.0,48.0,58,30.10,10.0,ENE,9.2,-,N/A,,Clear,60,2013-06-28 12:53:00
7:53 AM,66.0,46.9,50,30.10,10.0,East,6.9,-,N/A,,Clear,100,2013-06-28 13:53:00
8:53 AM,69.1,45.0,42,30.13,10.0,ESE,4.6,-,N/A,,Clear,110,2013-06-28 14:53:00
9:53 AM,73.9,45.0,35,30.13,10.0,Variable,3.5,-,N/A,,Clear,0,2013-06-28 15:53:00
10:53 AM,80.1,43.0,27,30.10,10.0,Calm,Calm,-,N/A,,Clear,0,2013-06-28 16:53:00
11:53 AM,84.9,33.1,16,30.08,10.0,Calm,Calm,-,N/A,,Clear,0,2013-06-28 17:53:00
12:53 PM,87.1,34.0,15,30.06,10.0,NNW,12.7,-,N/A,,Clear,330,2013-06-28 18:53:00
1:46 PM,89.6,30.2,12,30.38,10.0,WNW,6.9,18.4,N/A,,Clear,300,2013-06-28 19:46:00
1:53 PM,89.1,32.0,13,30.03,10.0,North,4.6,16.1,N/A,,Clear,350,2013-06-28 19:53:00
2:53 PM,88.0,33.1,14,30.02,10.0,West,9.2,-,N/A,,Clear,280,2013-06-28 20:53:00
3:53 PM,91.0,34.0,13,30.00,10.0,NNE,11.5,16.1,N/A,,Partly Cloudy,20,2013-06-28 21:53:00
4:53 PM,91.0,30.9,12,29.99,10.0,North,17.3,21.9,N/A,,Partly Cloudy,360,2013-06-28 22:53:00
5:53 PM,91.0,30.9,12,29.98,10.0,NNE,10.4,-,N/A,,Clear,20,2013-06-28 23:53:00
6:53 PM,87.1,33.1,15,29.98,10.0,North,13.8,23.0,N/A,,Clear,10,2013-06-29 00:53:00
7:53 PM,84.0,36.0,18,29.99,10.0,ENE,13.8,-,N/A,,Clear,60,2013-06-29 01:53:00
8:53 PM,80.1,36.0,20,29.99,10.0,NE,12.7,-,N/A,,Clear,40,2013-06-29 02:53:00
9:53 PM,75.9,39.0,26,30.01,10.0,East,13.8,-,N/A,,Clear,80,2013-06-29 03:53:00
10:53 PM,72.0,46.0,40,30.01,10.0,ENE,11.5,-,N/A,,Clear,70,2013-06-29 04:53:00
11:53 PM,71.1,46.9,42,30.01,10.0,ENE,15.0,-,N/A,,Clear,70,2013-06-29 05:53:00